Location: Apeadero de Los Molinos-Guadarrama
(40.7091°N, 4.0689°W)
Time: 20:26:09
(UTC+00:00)

X-37B - Visible Passes

Search period start: 26 September 2021 00:00
Search period end: 06 October 2021 00:00
Orbit: 381 x 393 km, 45.0° (Epoch: 29 August)

Date Brightness Start Highest point End Pass type
(mag) Time Alt. Az. Time Alt. Az. Time Alt. Az.
26 Sep 1.5 04:17:04 44° NNE 04:17:04 44° NNE 04:19:35 10° ENE visible
27 Sep 1.7 04:53:37 24° NW 04:54:56 35° N 04:57:53 10° ENE visible
28 Sep 2.9 03:57:54 23° NE 03:57:54 23° NE 03:59:26 10° ENE visible
28 Sep 1.6 05:30:25 10° WNW 05:33:26 40° N 05:36:27 10° E visible
29 Sep 1.7 04:34:29 33° NNW 04:34:55 35° N 04:37:52 10° ENE visible
30 Sep 3.9 03:38:49 14° ENE 03:38:49 14° ENE 03:39:21 10° ENE visible
30 Sep 1.2 05:11:07 17° WNW 05:13:23 52° NNE 05:16:29 10° E visible
01 Oct 2.0 04:15:30 35° NE 04:15:30 35° NE 04:17:55 10° E visible
02 Oct 0.6 04:52:16 39° WNW 04:53:17 78° NNE 04:56:26 10° ESE visible
03 Oct 3.3 03:56:49 20° E 03:56:49 20° E 03:57:57 10° E visible
03 Oct 1.4 05:29:07 14° W 05:31:25 34° SSW 05:34:19 10° SE visible
04 Oct 1.2 04:33:47 46° SSE 04:33:47 46° SSE 04:36:14 10° SE visible
05 Oct 2.2 05:10:53 19° SW 05:11:07 19° SW 05:13:25 10° S visible
